カタログに戻る

SL-14 R/B

運用中LEO
NORAD 16594·ROCKET BODY·🇷🇺 Russia

打ち上げ Feb 11, 1986 から Plesetsk Cosmodrome

Loading…

次のパス (今後24時間)

TLE

最新Source: Space-Track

元期: Sep 14, 2026, 11:48 UTC

1 16594U 86015B   26257.49199990  .00000004  00000-0  15680-3 0  9994
2 16594  73.6113 166.9172 0027632 285.8594 247.9988 12.41504049839570

AllMySatでSL-14 R/Bをリアルタイム追跡

Download on the App Store